Regional Weather Roundup
Issued by NWS

Home | Current Version | Previous Version | Graphics & Text | Print | Product List | Glossary On
Versions: 1 2 3 4 5 6 7 8 9 10 11 12 13 14 15 16 17 18 19 20 21 22 23 24 25 26 27 28 29 30 31 32 33 34 35 36 37 38 39 40 41 42 43 44 45 46 47 48 49
000
ASUS45 KBOU 231507
RWRCO

WEATHER ROUNDUP FOR COLORADO
NATIONAL WEATHER SERVICE DENVER/BOULDER CO
900 AM MDT TUE SEP 23 2014

NOTE: "FAIR" INDICATES FEW OR NO CLOUDS BELOW 12000 FEET WITH NO
SIGNIFICANT WEATHER AND/OR OBSTRUCTIONS TO VISIBILITY.

COZ001>005-013-030-031-231600-
...NORTHWEST COLORADO...

CITY           SKY/WX    TMP DP  RH WIND       PRES   REMARKS
CRAIG          CLOUDY    56  50  80 E3        30.28R
HAYDEN         CLOUDY    55  46  71 E3        30.28S
MEEKER         PTSUNNY   53  48  83 CALM      30.30R
MOUNT WERNER   NOT AVBL
STEAMBOAT SPGS CLOUDY    52  49  89 CALM      30.29S
WALDEN         MOSUNNY   50  46  87 CALM      30.33S
$$

COZ006>008-011-231600-
...WEST CENTRAL VALLEYS...

CITY           SKY/WX    TMP DP  RH WIND       PRES   REMARKS
GRAND JUNCTION SUNNY     65  52  62 E10       30.21R
MONTROSE       MOSUNNY   60  50  69 S10       30.30S
EAGLE            N/A     54  50  87 CALM      30.33R
RIFLE          SUNNY     57  51  80 CALM      30.27R
DELTA          RAIN      62  56  80 E8        30.27R
NUCLA          MOSUNNY   57  43  58 SE6       30.32S
$$

COZ017>023-064>068-231600-
...SOUTHWEST COLORADO...

CITY           SKY/WX    TMP DP  RH WIND       PRES   REMARKS
DURANGO        SUNNY     53  44  71 CALM      30.34R
CORTEZ         SUNNY     56  45  66 VRB3      30.30R
PAGOSA SPRINGS SUNNY     54  46  75 CALM      30.39S
TELLURIDE      NOT AVBL
WOLF CREEK PAS SUNNY     41  32  70 SW12G21   30.60R
$$

COZ009-010-012-014-032>034-037-058>063-231600-
...CENTRAL COLORADO...

CITY           SKY/WX    TMP DP  RH WIND       PRES   REMARKS
ASPEN          CLOUDY    51  45  79 S5        30.36R
BUENA VISTA    CLOUDY    51  43  72 CALM      30.35S
COPPER MTN     PTSUNNY   45  34  65 W23G33    30.56R
BERTHOUD PASS  FAIR      36  34  93 NW28      30.54R
COTTONWOOD PAS CLOUDY    54  36  50 CALM      30.45R
GUNNISON       CLOUDY    48  43  81 CALM      30.42R
KREMMLING      CLOUDY    54  46  76 CALM      30.33S
LEADVILLE      CLOUDY    50  36  58 NW5       30.44S
MONARCH PASS   FOG       37  36  93 W24G33    30.66S VSB<1/4
SALIDA         PTSUNNY   56  46  68 N6        30.40S
SUNLIGHT       MOSUNNY   45  43  93 CALM      30.53R
WILKERSON PASS NOT AVBL
$$

COZ069>075-231600-
...SAN LUIS VALLEY/SANGRE DE CRISTO MOUNTAINS...

CITY           SKY/WX    TMP DP  RH WIND       PRES   REMARKS
ALAMOSA        MOSUNNY   51  48  89 SE3       30.36S
LA VETA PASS   PTSUNNY   46  41  81 SW3       30.50R
SAGUACHE       PTSUNNY   54  43  66 N9        30.39R
$$

COZ035-036-038>040-231600-
...NORTHERN COLORADO FRONT RANGE...

CITY           SKY/WX    TMP DP  RH WIND       PRES   REMARKS
DENVER INTL AP CLOUDY    63  48  58 SW12      30.15R
DMNS CITY PARK   N/A     62  48  58 S7        30.15S
AURORA         PTSUNNY   64  49  57 S8        30.18R
FRONT RANGE AP PTSUNNY   64  50  59 S12       30.16R
ERIE MUNI ARPT NOT AVBL
BOULDER MUN AP PTSUNNY   63  48  59 SE3       30.13F
CENTENNIAL     PTSUNNY   62  47  57 E6        30.18R
BROOMFIELD     PTSUNNY   63  48  59 VRB3      30.17R
FORT COLLINS   PTSUNNY   63  50  63 S6        30.14S
LONGMONT       PTSUNNY   63  51  65 S3        30.14S HAZE
$$

COZ041-046-047-076>085-087-088-231600-
...PIKES PEAK/PALMER DIVIDE AND SOUTHERN FOOTHILLS...

CITY           SKY/WX    TMP DP  RH WIND       PRES   REMARKS
COLO. SPRINGS  MOSUNNY   70  44  39 CALM      30.21S
A. F. ACADEMY  MOSUNNY   65  40  39 CALM      30.23R
ELLICOTT       NOT AVBL
FALCON         SUNNY     67  41  38 W5        30.26S
FORT CARSON    SUNNY     64  46  51 N6        30.19R
LIMON          SUNNY     64  51  62 CALM      30.16R
MONUMENT HILL  CLOUDY    63  37  39 CALM      30.25S
TRINIDAD       SUNNY     66  50  56 W15       30.21R
$$

COZ042>045-048>051-090-091-231600-
...NORTHEAST COLORADO...

CITY           SKY/WX    TMP DP  RH WIND       PRES   REMARKS
GREELEY ARPT   PTSUNNY   64  46  52 CALM      30.13R
AKRON          PTSUNNY   64  55  72 W13       30.11R
BURLINGTON     MOSUNNY   63  58  83 SW7       30.10R
WRAY           MOSUNNY   61  57  88 SW3       30.06R
STERLING       PTSUNNY   68  59  73 SW6       30.07R
HOLYOKE        MOSUNNY   70  59  68 W8        30.05R
FORT MORGAN    PTSUNNY   64  53  68 W7        30.11S
$$

COZ086-089-092>099-231600-
...SOUTHEAST COLORADO...

CITY           SKY/WX    TMP DP  RH WIND       PRES   REMARKS
PUEBLO         SUNNY     63  49  60 W6        30.14R
LA JUNTA       SUNNY     65  55  70 W7        30.12R
LAMAR          SUNNY     65  57  75 W12       30.07R
SPRINGFIELD      N/A     70  58  65 SW12      30.11S
$$


USA.gov is the U.S. government's official web portal to all federal, state and local government web resources and services.